Content
SEND FEEDBACK

Daily
Averages
Monthly
Summary
United States of America

RAPID CITY, SOUTH DAKOTA


Home > North America > United States > South Dakota
Elevation: 963 meters     Latitude: 44 03N     Longitude: 103 04W

WEATHER
 
SELECT A DAY
Number of Records: 200,306;   Date Range: 1/1/95 - 7/26/14
 
SHARE

PRINT THIS DATA

[ ← Previous Day ]
WEATHER ALMANAC - 14 JANUARY, 2013
[ Next Day → ]
[ °F ]   °C
Weather ElementAverageHighLow
Temperature-14.6 °C-8 °C (12:52 pm)-18.9 °C (2:52 am)
Dewpoint-18.8 °C-14.4 °C (1:52 pm)-22.2 °C (10:52 pm)
Humidity71.6 %83 % (7:52 pm)58 % (12:52 pm)
Barometer1025.4 hPa1028.4 hPa (7:52 am)1018.3 hPa (12:52 pm)
Wind Speed4.2 km/h13 km/h (5:52 am)
Weather ElementAverage
Visibility16.1 km
Wind DirectionENE (69.5 °)

Weather ElementTotal
Precipitation---
Heating Degree Days31.8 (Base 18.3)
Averaged from 22 records on 14 January, 2013
WEATHER CONDITIONS BREAKOUT
WIND DIRECTION BREAKOUT
WEATHER BY HOUR - 14 JANUARY, 2013
[ °F ]   °C
Local TimeTemperatureDewpointHumidityBarometerVisibilityWind DirectionWind SpeedGust SpeedPrecipitationEventsConditions
2:52 AM-18.9 °C-21.7 °C79 %1027.1 hPa16.1 kmCalmPartly Cloudy
3:52 AM-18.3 °C-21.1 °C79 %1027.1 hPa16.1 kmCalmPartly Cloudy
4:52 AM-17 °C-21 °C72 %1019.3 hPa16.1 kmCalmClear
5:52 AM-15 °C-20 °C66 %1027.1 hPa16.1 kmSSW (210°)13 km/hOvercast
6:52 AM-13.9 °C-18.9 °C67 %1027.8 hPa16.1 kmSouth (190°)5.6 km/hOvercast
7:52 AM-14.4 °C-19.4 °C67 %1028.4 hPa16.1 kmCalmMostly Cloudy
8:52 AM-14.4 °C-19.4 °C67 %1027.8 hPa16.1 kmSE (130°)5.6 km/hClear
9:52 AM-13.3 °C-18.3 °C67 %1027.8 hPa16.1 kmNE (40°)5.6 km/hClear
10:52 AM-11.7 °C-17.2 °C64 %1026.8 hPa16.1 kmCalmClear
11:52 AM-9.4 °C-16.1 °C59 %1025.4 hPa16.1 kmEast (100°)7.4 km/hClear
12:52 PM-8 °C-15 °C58 %1018.3 hPa16.1 kmSE (130°)11.1 km/hMostly Cloudy
1:52 PM-8.9 °C-14.4 °C65 %1025.1 hPa16.1 kmSE (130°)7.4 km/hClear
2:52 PM-8.9 °C-14.4 °C65 %1025.7 hPa16.1 kmESE (120°)9.3 km/hMostly Cloudy
3:52 PM-10 °C-14.4 °C71 %1025.7 hPa16.1 kmSE (130°)11.1 km/hPartly Cloudy
4:52 PM-13.9 °C-17.2 °C77 %1025.7 hPa16.1 kmSSE (150°)5.6 km/hClear
5:52 PM-16.1 °C-19.4 °C76 %1026.1 hPa16.1 kmCalmClear
6:52 PM-16.7 °C-19.4 °C80 %1025.7 hPa16.1 kmESE (120°)5.6 km/hClear
7:52 PM-18.3 °C-20.6 °C83 %1025.4 hPa16.1 kmCalmClear
8:52 PM-18.9 °C-21.1 °C83 %1025.1 hPa16.1 kmCalmClear
9:52 PM-18.3 °C-21.1 °C79 %1024 hPa16.1 kmEast (80°)5.6 km/hClear
10:52 PM-18.9 °C-22.2 °C76 %1024 hPa16.1 kmCalmClear
11:52 PM-18.3 °C-21.7 °C75 %1023.4 hPa16.1 kmCalmClear
Hourly data recorded from KRAP, located 0 kilometers away from Rapid City, South Dakota







STORIES FROM OUR PARTNERS